Content
SEND FEEDBACK

Daily
Averages
Monthly
Summary
Channel Islands

ALDERNEY, CHANNEL ISLANDS


Home > Europe > Channel Islands
Elevation: 233 feet     Latitude: 49 43N     Longitude: 002 12W

WEATHER
 
SELECT A DAY
Number of Records: 142,178;   Date Range: 7/1/96 - 10/20/14
 
SHARE

PRINT THIS DATA

[ ← Previous Day ]
WEATHER ALMANAC - JANUARY 31, 2013
[ Next Day → ]
[ °C ]   °F
Weather ElementAverageHighLow
Temperature49.7 °F50 °F (7:20 am)48.2 °F (4:50 pm)
Dewpoint45.1 °F50 °F (7:50 am)42.8 °F (10:20 am)
Humidity84.7 %100 % (7:50 am)76 % (10:20 am)
Barometer30.04 in30.06 in (10:50 am)29.98 in (7:20 am)
Wind Speed23.7 mph35.7 mph (7:50 am)
Wind Gust54.1 mph (8:20 am)
Weather ElementAverage
Visibility5.6 mi
Wind DirectionWSW (256.1 °)

Weather ElementTotal
Precipitation---
Heating Degree Days15.9 (Base 65)
Averaged from 23 records on January 31, 2013
WEATHER CONDITIONS BREAKOUT
WIND DIRECTION BREAKOUT
WEATHER BY HOUR - JANUARY 31, 2013
[ °C ]   °F
Local TimeTemperatureDewpointHumidityBarometerVisibilityWind DirectionWind SpeedGust SpeedPrecipitationEventsConditions
7:20 AM50.0 °F48.2 °F94 %29.98 in5.0 miSW (230°)31.1 mph50.6 mphMostly Cloudy
7:50 AM50.0 °F50.0 °F100 %29.98 in5.0 miSW (230°)35.7 mph50.6 mphRainRain
8:20 AM50.0 °F50.0 °F100 %29.98 in5.0 miSW (230°)32.2 mph54.1 mphScattered Clouds
8:50 AM50.0 °F48.2 °F94 %29.98 in5.0 miWSW (240°)28.8 mph43.7 mphScattered Clouds
9:20 AM50.0 °F48.2 °F94 %30.01 in5.0 miWest (260°)27.6 mph41.4 mphPartly Cloudy
9:50 AM50.0 °F44.6 °F82 %30.04 in5.0 miWest (270°)20.7 mph40.3 mphScattered Clouds
10:20 AM50.0 °F42.8 °F76 %30.04 in5.0 miWest (270°)23.0 mph36.8 mphPartly Cloudy
10:50 AM50.0 °F42.8 °F76 %30.06 in5.0 miWest (260°)25.3 mphPartly Cloudy
11:20 AM50.0 °F44.6 °F82 %30.06 in5.0 miWest (260°)24.2 mphPartly Cloudy
11:50 AM50.0 °F44.6 °F82 %30.06 in6.2 miWest (260°)24.2 mphPartly Cloudy
12:20 PM50.0 °F44.6 °F82 %30.06 in5.0 miWest (260°)25.3 mphPartly Cloudy
12:50 PM50.0 °F44.6 °F82 %30.06 in5.0 miWest (260°)25.3 mphPartly Cloudy
1:20 PM50.0 °F44.6 °F82 %30.06 in5.0 miWest (260°)24.2 mph36.8 mphPartly Cloudy
1:50 PM50.0 °F44.6 °F82 %30.06 in6.2 miWest (270°)19.6 mph34.5 mphScattered Clouds
2:20 PM50.0 °F42.8 °F76 %30.06 in6.2 miWest (260°)20.7 mphScattered Clouds
2:50 PM50.0 °F42.8 °F76 %30.06 in6.2 miWest (260°)23.0 mphScattered Clouds
3:20 PM50.0 °F44.6 °F82 %30.06 in6.2 miWest (260°)24.2 mphScattered Clouds
3:50 PM50.0 °F44.6 °F82 %30.06 in6.2 miWest (260°)18.4 mphScattered Clouds
4:20 PM50.0 °F44.6 °F82 %30.06 in6.2 miWest (260°)18.4 mphScattered Clouds
4:50 PM48.2 °F42.8 °F82 %30.06 in6.2 miWest (260°)19.6 mphPartly Cloudy
5:20 PM48.2 °F44.6 °F87 %30.06 in6.2 miWest (260°)18.4 mphScattered Clouds
5:50 PM48.2 °F44.6 °F87 %30.06 in6.2 miWSW (250°)15.0 mphScattered Clouds
6:20 PM48.2 °F44.6 °F87 %30.06 in6.2 miWest (260°)19.6 mphScattered Clouds
Hourly data recorded from EGJA, located miles away from Alderney, Channel Islands







STORIES FROM OUR PARTNERS